Retour au catalogue

STARLINK-37943

ActifCommunicationsSSO
NORAD 69666·PAYLOAD·🇺🇸 United States

Lancé Jun 21, 2026 depuis Vandenberg Space Force Base

Loading…

Prochains Passages (prochaines 24 heures)

TLE

FraisSource: CelesTrak SupGP

Époque: Sep 15, 2026, 04:20 UTC

1 69666C 26143T   26258.18104167 -.00045228  00000+0 -14035-2 0  2585
2 69666  97.2839 301.4281 0000943  91.6108   0.4704 15.33474111    19

Suivez STARLINK-37943 en temps réel avec AllMySat

Download on the App Store